GW0356 Weather Reports


Display with metric or nautical units.
time (UTC)temp
F
wind
direction
speed
MPH
gust
MPH
rain 1hr
in
rain 24hr
in
rain mn
in
humidity
%
barometer
mb
20260906163048 73 181 2.0 8.0 0.00 0.01 0.01 84 1020.8
20260906161534 73 179 1.0 6.0 0.00 0.01 0.01 81 1021.0
20260906160033 71 115 3.0 6.0 0.00 0.01 0.01 84 1021.1
20260906154529 72 115 2.0 5.0 0.00 0.01 0.01 84 1021.1
20260906153025 71 233 1.0 6.0 0.00 0.01 0.01 85 1021.0
20260906151520 69 100 3.0 6.0 0.00 0.01 0.01 87 1020.8
20260906150017 68 120 4.0 7.0 0.01 0.01 0.01 89 1020.6
20260906144517 67 98 2.0 7.0 0.01 0.01 0.01 92 1020.6
20260906143013 65 163 5.0 8.0 0.01 0.01 0.01 94 1020.5
20260906141512 65 124 5.0 8.0 0.01 0.01 0.01 97 1020.7
20260906140009 64 155 3.0 6.0 0.00 0.00 0.00 99 1020.9
20260906134503 63 112 5.0 8.0 0.00 0.00 0.00 99 1020.9
20260906133000 63 117 5.0 7.0 0.00 0.00 0.00 99 1020.7
20260906131617 63 79 5.0 7.0 0.00 0.00 0.00 99 1020.8
20260906130104 63 105 3.0 7.0 0.00 0.00 0.00 99 1020.8
20260906124553 63 101 2.0 6.0 0.00 0.01 0.00 99 1020.5
20260906123053 62 109 4.0 6.0 0.00 0.01 0.00 99 1020.2
20260906121550 62 120 2.0 5.0 0.00 0.01 0.00 99 1020.1
20260906120055 62 98 0.0 5.0 0.00 0.01 0.00 99 1019.9
20260906114542 63 120 1.0 6.0 0.00 0.01 0.00 99 1019.9
20260906113040 62 88 3.0 7.0 0.00 0.01 0.00 98 1019.3
20260906111536 62 101 3.0 6.0 0.00 0.01 0.00 98 1019.3
20260906110033 63 93 2.0 6.0 0.00 0.01 0.00 98 1019.3
20260906104531 63 47 1.0 3.0 0.00 0.01 0.00 98 1019.4
20260906103028 63 25 1.0 2.0 0.00 0.01 0.00 98 1019.2
20260906101525 63 110 0.0 2.0 0.00 0.01 0.00 98 1018.8
20260906100023 63 97 1.0 3.0 0.00 0.01 0.00 98 1018.7
20260906094519 63 70 2.0 4.0 0.00 0.01 0.00 98 1018.7
20260906093028 63 88 1.0 5.0 0.00 0.01 0.00 98 1018.6
20260906091512 64 110 3.0 7.0 0.00 0.01 0.00 98 1018.5
20260906090010 64 75 4.0 7.0 0.00 0.01 0.00 98 1018.6
20260906084513 65 253 4.0 9.0 0.00 0.01 0.00 98 1018.6
20260906083006 65 103 4.0 9.0 0.00 0.01 0.00 98 1018.8
20260906081604 65 107 4.0 8.0 0.00 0.01 0.00 98 1018.6
20260906074600 65 101 3.0 7.0 0.00 0.01 0.00 98 1018.9
20260906073057 65 89 4.0 7.0 0.00 0.01 0.00 97 1018.9
20260906071551 66 86 2.0 6.0 0.00 0.01 0.00 97 1018.9
20260906070049 66 108 3.0 6.0 0.00 0.01 0.00 97 1019.0
20260906064546 66 77 2.0 8.0 0.00 0.01 0.00 97 1019.0
20260906063043 66 65 3.0 6.0 0.00 0.01 0.00 97 1019.0
20260906061541 66 40 4.0 6.0 0.00 0.01 0.00 96 1019.2
20260906060037 67 79 2.0 5.0 0.00 0.01 0.00 96 1019.1
20260906054531 67 110 2.0 5.0 0.00 0.01 0.00 96 1019.0
20260906053028 67 124 3.0 5.0 0.00 0.01 0.00 95 1018.9
20260906051525 67 54 3.0 5.0 0.00 0.01 0.00 95 1019.0
20260906050020 68 70 3.0 4.0 0.00 0.01 0.01 94 1019.2
20260906044520 68 75 2.0 4.0 0.00 0.01 0.01 94 1019.3
20260906043014 68 79 2.0 3.0 0.00 0.01 0.01 94 1019.3
20260906041513 68 70 2.0 4.0 0.00 0.01 0.01 94 1019.2
20260906040009 69 117 2.0 5.0 0.00 0.01 0.01 93 1018.9
20260906034505 69 114 2.0 4.0 0.00 0.01 0.01 93 1018.7
20260906033003 69 116 0.0 4.0 0.00 0.01 0.01 93 1018.4
20260906031605 69 109 1.0 7.0 0.00 0.01 0.01 92 1018.4
20260906024559 70 63 3.0 6.0 0.00 0.01 0.01 91 1018.1
20260906023057 71 110 3.0 9.0 0.00 0.01 0.01 91 1017.7
20260906021559 71 72 4.0 8.0 0.00 0.01 0.01 90 1017.6
20260906020054 72 115 3.0 8.0 0.00 0.01 0.01 90 1017.4
20260906014552 72 99 5.0 8.0 0.00 0.01 0.01 91 1017.0
20260906013050 72 99 4.0 7.0 0.00 0.01 0.01 90 1016.8
20260906011604 72 82 1.0 3.0 0.00 0.01 0.01 89 1016.8
20260906010052 73 115 4.0 8.0 0.00 0.01 0.01 87 1016.4
20260906004550 73 115 4.0 6.0 0.00 0.01 0.01 87 1016.3
20260906003046 73 87 0.0 2.0 0.00 0.01 0.01 87 1016.4
20260906001543 73 79 2.0 5.0 0.00 0.01 0.01 87 1016.4
20260906000045 73 108 0.0 2.0 0.00 0.01 0.01 87 1016.4
20260905234543 73 248 1.0 4.0 0.00 0.01 0.01 87 1016.6
20260905233102 73 121 5.0 7.0 0.00 0.01 0.01 88 1016.1
20260905231550 74 148 3.0 7.0 0.00 0.01 0.01 88 1016.5
20260905230045 74 90 3.0 4.0 0.00 0.01 0.01 86 1016.9
20260905224547 75 84 3.0 6.0 0.00 0.01 0.01 84 1016.9
20260905223035 75 72 3.0 6.0 0.00 0.01 0.01 84 1016.9
20260905221539 75 107 5.0 9.0 0.00 0.01 0.01 82 1016.7
20260905220034 76 111 5.0 11.0 0.00 0.01 0.01 83 1016.6
20260905214534 75 92 7.0 12.0 0.00 0.01 0.01 82 1016.7
20260905213035 76 93 7.0 12.0 0.00 0.01 0.01 82 1016.8
20260905211534 77 104 5.0 9.0 0.00 0.01 0.01 82 1017.1
20260905210034 76 96 5.0 12.0 0.00 0.01 0.01 81 1017.0
20260905204531 76 66 8.0 13.0 0.00 0.01 0.01 81 1017.0
20260905203031 77 121 9.0 16.0 0.00 0.01 0.01 81 1016.7
20260905201530 79 96 3.0 11.0 0.00 0.01 0.01 78 1016.7
20260905200032 79 62 7.0 10.0 0.00 0.01 0.01 78 1016.8
20260905194528 79 85 7.0 11.0 0.00 0.01 0.01 77 1017.0
20260905193025 78 77 5.0 10.0 0.00 0.01 0.01 77 1017.0
20260905191524 80 65 1.0 9.0 0.00 0.01 0.01 76 1017.0
20260905190024 79 80 2.0 8.0 0.00 0.25 0.01 78 1017.4
20260905184524 79 89 5.0 10.0 0.00 0.25 0.01 76 1017.1
20260905183024 79 70 7.0 11.0 0.00 0.25 0.01 79 1017.2
20260905181524 78 110 6.0 11.0 0.00 0.25 0.01 81 1017.2
20260905180022 77 110 5.0 8.0 0.00 0.28 0.01 84 1017.3
20260905174524 78 97 3.0 7.0 0.00 0.28 0.01 83 1017.5
20260905173026 77 120 1.0 6.0 0.00 0.28 0.01 83 1017.8
20260905171515 77 98 2.0 7.0 0.00 0.28 0.01 85 1017.6
20260905170015 76 84 0.0 5.0 0.00 0.28 0.01 87 1017.7
20260905164515 76 127 4.0 9.0 0.00 0.28 0.01 86 1017.5